Skip Page Navigation
NASA JPL Caltech
NASA Logo - Jet Propulsion Laboratory + View the NASA Portal
+ Center for Near-Earth Object Studies
JPL Home Earth Solar System Stars & Galaxies Technology
JPL Solar System Dynamics
BODIES ORBITS EPHEMERIDES TOOLS PHYSICAL DATA DISCOVERY FAQ SITE MAP
IMPORTANT: The SSD Announcement email list is now available. Major changes are coming in the near future, including possible hostname and/or URL changes. To be notified of such changes, subscribe to this email list.

Please visit this page for more details.


JPL Small-Body Database Browser
Search: [ help ]  
245706 (2006 BE274)
Classification: Main-belt Asteroid          SPK-ID: 2245706
Ephemeris | Orbit Diagram | Orbital Elements | Mission Design | Physical Parameters | Discovery Circumstances | Close-Approach Data ]

[ show orbit diagram ]
Orbital Elements at Epoch 2459000.5 (2020-May-31.0) TDB
Reference: JPL 16 (heliocentric ecliptic J2000)
 Element Value Uncertainty (1-sigma)   Units 
e .07721336047210033 5.7401e-08  
a 3.148871043245414 4.1927e-08 au
q 2.905736128303147 1.9637e-07 au
i 7.093516951989304 6.2151e-06 deg
node 118.8187614529765 4.4954e-05 deg
peri 173.4242296869919 6.2835e-05 deg
M 62.59701933497442 4.093e-05 deg
tp 2458645.619698925004
(2019-Jun-11.11969892)
0.0002348 TDB
period 2040.942360263752
5.59
4.0762e-05
1.116e-07
d
yr
n .1763891068209673 3.5229e-09 deg/d
Q 3.392005958187681 4.5164e-08 au
  Orbit Determination Parameters
   # obs. used (total)      281  
   data-arc span      8092 days (22.15 yr)  
   first obs. used      1997-08-03  
   last obs. used      2019-09-29  
   planetary ephem.      DE431  
   SB-pert. ephem.      SB431-N16  
   condition code      0  
   norm. resid. RMS      .58592  
   source      ORB  
   producer      Otto Matic  
   solution date      2019-Nov-08 02:27:07  

Additional Information
 Earth MOID = 1.88972 au 
 Jupiter MOID = 1.77157 au 
 T_jup = 3.192 
[ show covariance matrix ]

Ephemeris | Orbit Diagram | Orbital Elements | Mission Design | Physical Parameters | Discovery Circumstances | Close-Approach Data ]

Physical Parameter Table
Parameter Symbol Value Units Sigma Reference Notes
absolute magnitude H 15.3   n/a MPO440247  
diameter diameter 5.522 km 0.542 urn:nasa:pds:neowise_diameters_albedos::2.0[mainbelt] (http://adsabs.harvard.edu/abs/2011ApJ...741...68M)  
geometric albedo albedo 0.040   0.008 urn:nasa:pds:neowise_diameters_albedos::2.0[mainbelt] (http://adsabs.harvard.edu/abs/2011ApJ...741...68M)  

245706 (2006 BE274)          Discovered 2006-Jan-23 by Spacewatch at Kitt Peak
Reference: 20100726/Numbers.arcLast Updated: 2010-07-28

[ show close-approach data ]
Ephemeris | Orbit Diagram | Orbital Elements | Mission Design | Physical Parameters | Discovery Circumstances | Close-Approach Data ]
ABOUT SSD CREDITS/AWARDS PRIVACY/COPYRIGHT GLOSSARY LINKS
FirstGov 2020-Apr-10 05:20 UT
(server date/time)  
NASA Home Page
Site Manager:   Ryan S. Park
Webmaster  Alan B. Chamberlin